Regional Weather Roundup
Issued by NWS

Home | Current Version | Previous Version | Graphics & Text | Print | Product List | Glossary On
Versions: 1 2 3 4 5 6 7 8 9 10 11 12 13 14 15 16 17 18 19 20 21 22 23 24 25 26 27 28 29 30 31 32 33 34 35 36 37 38 39 40 41 42 43 44 45 46 47 48 49 50
000
ASUS43 KIND 230609
RWRIN

WEATHER ROUNDUP FOR INDIANA
NATIONAL WEATHER SERVICE INDIANAPOLIS IN
100 AM EST THU FEB 23 2017

NOTE: "FAIR" INDICATES FEW OR NO CLOUDS BELOW 12,000 FEET WITH NO
SIGNIFICANT WEATHER AND/OR OBSTRUCTIONS TO VISIBILITY.

* - STATION DOES NOT REPORT WEATHER SUCH AS PRECIPITATION OR FOG.

+ - STATION NOT QUALITY CONTROLLED BY THE NATIONAL WEATHER SERVICE.
    USE DATA WITH CAUTION...ESPECIALLY DEWPOINT AND RELATIVE
    HUMIDITY OBSERVATIONS.

INZ001>003-010>013-019-020-230700-
NORTHWEST INDIANA

CITY           SKY/WX    TMP DP  RH WIND       PRES   REMARKS
GARY /AIRPORT/ PTCLDY    59  53  81 SW7       29.65R
KNOX *+        CLEAR     55  37  50 SW13G18   29.67S
LA PORTE +     CLEAR     55  53  91 SW12      29.66S
6HR MIN TEMP:  55; 6HR MAX TEMP:  60;

MICHIGAN CITY+ CLEAR     55  54  94 SW10G17   29.65S
MONTICELLO +   MOCLDY    57  53  86 S13       29.69F
6HR MIN TEMP:  56; 6HR MAX TEMP:  60;

RENSSELAER +   CLEAR     55  54  94 SW13      29.68S
VALPARAISO     CLEAR     58  54  86 SW15      29.66S
6HR MIN TEMP:  57; 6HR MAX TEMP:  62;


$$

LMZ046-743>745-230700-
SOUTHERN LAKE MICHIGAN

STATION/POSITION TIME  TEMP    WIND        PRES    WAVE
                       AIR SEA DIR/SP/G            HT
                 (UTC) (F)     (DEG/KT/KT) (MB)    (FT)
BURNS HARBOR     0540   59     210/ 16/ 21 1004.1R
MICHIGAN CITY    0540   60     180/ 20/ 23   N/A

$$

INZ004-005-014>016-021>024-230700-
NORTH CENTRAL INDIANA

CITY           SKY/WX    TMP DP  RH WIND       PRES   REMARKS
GOSHEN         PTCLDY    57  51  80 S16       29.66F
6HR MIN TEMP:  56; 6HR MAX TEMP:  58;

LOGANSPORT +   CLEAR     52  50  93 S8        29.71S
PERU/GRISSOM   CLEAR     55  55 100 S12       29.70F
6HR MIN TEMP:  54; 6HR MAX TEMP:  58;

ROCHESTER +    PTCLDY    59  54  82 S12G17    29.69F
SOUTH BEND     CLEAR     58  53  84 SW18G26   29.66S
6HR MIN TEMP:  56; 6HR MAX TEMP:  58;

WARSAW +       PTCLDY    55  52  88 SW8       29.68F

$$

INZ006>009-017-018-025>027-230700-
NORTHEAST INDIANA

CITY           SKY/WX    TMP DP  RH WIND       PRES   REMARKS
ANGOLA *+      PTCLDY    57  48  72 SW12      29.67F
AUBURN +       CLEAR     55  52  88 S9        29.70F
FORT WAYNE     PTCLDY    54  51  90 S12       29.71F
6HR MIN TEMP:  53; 6HR MAX TEMP:  58;

HUNTINGTON +   CLEAR     55  54  95 S7        29.71F
6HR MIN TEMP:  55; 6HR MAX TEMP:  59;

KENDALLVILLE + MOCLDY    56  54  92 S12       29.68F

$$

INZ028-029-035-036-043>045-051>053-230700-
WEST CENTRAL INDIANA

CITY           SKY/WX    TMP DP  RH WIND       PRES   REMARKS
LAFAYETTE      PTCLDY    58  53  84 SW7       29.71S
6HR MIN TEMP:  57; 6HR MAX TEMP:  62;

TERRE HAUTE    CLEAR     55  51  86 S3        29.75R
6HR MIN TEMP:  55; 6HR MAX TEMP:  64;


$$

INZ030>032-037>040-046>048-054>057-064-065-230700-
CENTRAL INDIANA

CITY           SKY/WX    TMP DP  RH WIND       PRES   REMARKS
CP ATTERBURY + CLEAR     55  52  88 S5        29.76S
FISHERS *+     CLEAR     55  55 100 S5        29.75
FRANKFORT +    CLEAR     55  53  92 SW6       29.74F
6HR MIN TEMP:  55; 6HR MAX TEMP:  61;

GREENWOOD *+   CLEAR     56  54  94 S3        29.77R
6HR MIN TEMP:  56; 6HR MAX TEMP:  64;

INDIANAPOLIS   PTCLDY    57  53  86 S9        29.75R
6HR MIN TEMP:  57; 6HR MAX TEMP:  62;

-EAGLE CREEK   CLEAR     56  52  86 CALM      29.74R
6HR MIN TEMP:  56; 6HR MAX TEMP:  64;

KOKOMO +       PTCLDY    55  53  93 S12       29.73S
6HR MIN TEMP:  53; 6HR MAX TEMP:  58;

MARION +       CLEAR     53  52  95 S10       29.74S FOG
MT COMFORT *+  CLEAR     54  52  94 S5        29.76S
SHELBYVILLE    CLEAR     57  52  83 S8        29.76R
6HR MIN TEMP:  55; 6HR MAX TEMP:  62;

ZIONSVILLE +   CLEAR     52  50  93 S8        29.75S
6HR MIN TEMP:  52; 6HR MAX TEMP:  63;


$$

INZ033-034-041-042-049-050-058-059-230700-
EAST CENTRAL INDIANA

CITY           SKY/WX    TMP DP  RH WIND       PRES   REMARKS
MUNCIE         CLEAR     59  53  80 SW8       29.75R
6HR MIN TEMP:  59; 6HR MAX TEMP:  62;


$$

INZ060-061-067>069-081>083-085>088-230700-
SOUTHWEST INDIANA

CITY           SKY/WX    TMP DP  RH WIND       PRES   REMARKS
EVANSVILLE     PTCLDY    58  53  84 SW7       29.78S
6HR MIN TEMP:  56; 6HR MAX TEMP:  65;

HUNTINGBURG *+ PTCLDY    59  55  87 S8        29.78R
6HR MIN TEMP:  58; 6HR MAX TEMP:  64;

WASHINGTON +   CLEAR     54  52  94 S5        29.76S
6HR MIN TEMP:  54; 6HR MAX TEMP:  64;


$$

INZ062-063-066-070>080-084-089>092-230700-
SOUTH CENTRAL AND SOUTHEAST INDIANA

CITY           SKY/WX    TMP DP  RH WIND       PRES   REMARKS
BEDFORD +      CLEAR    N/A N/A N/A S5        29.76S
BLOOMINGTON    CLEAR     58  53  84 SW7       29.76S
6HR MIN TEMP:  57; 6HR MAX TEMP:  64;

MADISON *+     PTCLDY    59  54  82 S5        29.80F
NORTH VERNON + CLEAR    N/A N/A N/A S9        29.76F
SEYMOUR +      CLEAR     55  52  88 S7        29.77S

$$




USA.gov is the U.S. government's official web portal to all federal, state and local government web resources and services.